Delta Virtual Airport Information Service

Atlanta Hartsfield-Jackson International Airport

ICAO: KATL Country: United States
Latitude: 33.6367 Longitude: -84.428
Latest Arrival : DAL1431 (A) (KAVL-KATL) Latest Departure : DAL685981 (KATL-MYNN)


WX CaptureLIVE
Data provided by noaa.gov | Fetched at 07:46:03

METAR : KATL 061252Z 05007KT 10SM BKN070 BKN085 09/M04 A3014 RMK AO2 SLP207 T00941044

TAF : KATL 061335Z 0614/0718 05007KT P6SM BKN070 BKN090 FM062100 03008KT P6SM SCT040 BKN100 FM070000 34006KT P6SM FEW120


Runway Data for KATL
Data provided by openaviationdata.com

Runway ID Mag Var Hdg Length Elevation Surface ILS Freq ILS Id ILS Slope
08L -3 93° 8990 ft 1026 ft Concrete 109.3 IHFW 3
08R -3 93° 9989 ft 1026 ft Concrete 109.9 IATL 3
09L -3 93° 11876 ft 1026 ft Concrete 110.5 IHZK 3
09R -3 93° 8990 ft 1026 ft Concrete 108.9 IFUN 3
26L -3 273° 9989 ft 1026 ft Concrete 108.7 IBRU 3
26R -3 273° 8990 ft 1026 ft Concrete 110.1 IGXZ 3
27L -3 273° 8990 ft 1026 ft Concrete 108.5 IFSQ 3
27R -3 273° 11876 ft 1026 ft Concrete 111.3 IAFA 3

Atlanta Hartsfield-Jackson International Airport, United States
Use only for reference purposes



Not for navigational purposes.